Location: Auckland
(36.8670°S, 174.7670°E)
Time: 01:05:33
(UTC+13:00)

Explorer 11/Cluster Stage 4 - Pass Details

Date: 05 August 2020
Orbit: 467 x 1258 km, 28.8° (Epoch: 30 September)

Event Time Altitude Azimuth Distance (km) Brightness Sun altitude
Rises 17:54:54 0° 277° (W) 3,443 12.1 -3.8°
Reaches altitude 10° 17:57:47 10° 291° (WNW) 2,640 11.3 -4.4°
Maximum altitude 18:02:51 24° 342° (NNW) 2,006 9.1 -5.4°
Drops below altitude 10° 18:08:38 10° 32° (NNE) 3,047 9.4 -6.5°
Sets 18:12:14 0° 44° (NE) 4,097 10.0 -7.2°
